Date String (YYYY-MM-DD hh:mm:ss) UTC,Instrument flags,Ambient pressure (hPa),Sample flow (lpm),Bypass flow (lpm),Sample temperature (°C),Ambient temperature (°C),ASC tube jacket temperature (°C),LED temperature (°C),Box temperature (°C),Sample RH (%),Span deviation,Mass concentration (μg/m³),Mass concentration (μg/m³),Mass concentration (μg/m³)
DateTimeUTC,F1_M11,P_M11,Q1_M11,Q2_M11,T1_M11,T2_M11,T3_M11,T4_M11,T5_M11,U1_M11,ZSPAN_M11,X0_M11,X2_M11,X1_M11
2022-12-22 04:00:00,,0825.3,4.96,0.00,20.8,19.8,00.0,29.6,22.1,03.4,-001.6,0013.77,0005.66,0003.97
2022-12-22 04:01:00,,0825.4,5.01,0.00,20.6,18.8,00.0,29.6,21.8,03.4,-001.4,0013.21,0005.61,0003.97
2022-12-22 04:02:00,,0825.4,5.02,0.00,20.5,18.9,00.0,29.5,21.8,03.5,-001.4,0012.50,0005.56,0003.97
2022-12-22 04:03:00,,0825.4,4.96,0.00,20.6,20.0,00.0,29.5,22.1,03.4,-001.1,0012.12,0005.54,0003.98
2022-12-22 04:04:00,,0825.5,5.04,0.00,20.7,20.9,00.0,29.5,22.4,03.4,-000.6,0012.30,0005.48,0003.96
2022-12-22 04:05:00,,0825.5,4.97,0.00,20.8,21.5,00.0,29.5,22.6,03.4,-000.9,0011.62,0005.41,0003.96
2022-12-22 04:06:00,,0825.6,5.03,0.00,20.9,20.9,00.0,29.6,22.5,03.4,-001.2,0011.59,0005.35,0003.97
2022-12-22 04:07:00,,0825.6,4.97,0.00,20.8,19.8,00.0,29.6,22.3,03.4,-001.0,0011.67,0005.31,0003.98
2022-12-22 04:08:00,,0825.5,5.02,0.00,20.7,19.0,00.0,29.6,22.0,03.4,-001.1,0011.80,0005.31,0004.00
2022-12-22 04:09:00,,0825.4,5.02,0.00,20.7,19.3,00.0,29.5,22.1,03.4,-000.7,0012.00,0005.23,0003.99
2022-12-22 04:10:00,,0825.4,4.97,0.00,20.8,20.5,00.0,29.5,22.4,03.4,0000.1,0012.36,0005.26,0003.98
2022-12-22 04:11:00,,0825.3,4.99,0.00,20.9,21.3,00.0,29.5,22.6,03.4,-000.5,0012.68,0005.24,0003.96
2022-12-22 04:12:00,,0824.6,5.03,0.00,20.9,21.4,00.0,29.6,22.7,03.4,-000.6,0012.53,0005.24,0003.97
2022-12-22 04:13:00,,0824.1,4.96,0.00,20.9,20.3,00.0,29.6,22.4,03.4,-000.1,0013.06,0005.27,0003.97
2022-12-22 04:14:00,,0824.2,5.02,0.00,20.7,19.1,00.0,29.6,21.9,03.4,0000.2,0013.09,0005.26,0003.95
2022-12-22 04:15:00,,0824.4,4.97,0.00,20.5,18.5,00.0,29.6,21.7,03.4,0000.2,0012.67,0005.28,0003.96
2022-12-22 04:16:00,,0824.6,5.01,0.00,20.6,19.5,00.0,29.5,21.9,03.4,0000.7,0012.83,0005.35,0003.98
2022-12-22 04:17:00,,0824.9,4.97,0.00,20.7,20.5,00.0,29.5,22.2,03.4,0001.9,0013.03,0005.42,0003.99
2022-12-22 04:18:00,,0824.9,5.05,0.00,20.8,21.1,00.0,29.5,22.5,03.4,0002.3,0013.00,0005.47,0003.97
2022-12-22 04:19:00,,0824.8,4.96,0.00,20.9,21.6,00.0,29.5,22.7,03.4,0002.2,0013.22,0005.52,0003.96
2022-12-22 04:20:00,,0824.7,5.02,0.00,21.0,21.5,00.0,29.5,22.7,03.4,0002.2,0013.12,0005.57,0003.96
2022-12-22 04:21:00,,0825.0,5.00,0.00,20.9,20.4,00.0,29.6,22.4,03.4,0001.8,0013.44,0005.60,0003.97
2022-12-22 04:22:00,,0824.9,4.99,0.00,20.8,19.3,00.0,29.6,22.1,03.4,0002.1,0013.27,0005.65,0004.00
2022-12-22 04:23:00,,0825.0,5.01,0.00,20.6,18.8,00.0,29.6,21.9,03.4,0002.1,0013.25,0005.67,0004.02
2022-12-22 04:24:00,,0825.3,5.03,0.00,20.7,19.8,00.0,29.5,22.1,03.4,0002.2,0012.73,0005.65,0004.03
2022-12-22 04:25:00,,0825.4,4.97,0.00,20.8,20.7,00.0,29.5,22.4,03.4,0002.1,0012.69,0005.67,0004.05
2022-12-22 04:26:00,,0825.5,4.99,0.00,20.9,21.3,00.0,29.5,22.6,03.4,0001.9,0013.22,0005.69,0004.06
2022-12-22 04:27:00,,0825.4,5.00,0.00,21.0,21.7,00.0,29.6,22.8,03.4,0001.7,0013.26,0005.65,0004.05
2022-12-22 04:28:00,,0825.2,5.03,0.00,21.1,21.5,00.0,29.6,22.8,03.3,0000.4,0013.20,0005.69,0004.05
2022-12-22 04:29:00,,0825.0,4.98,0.00,21.0,20.1,00.0,29.7,22.4,03.4,0000.1,0013.06,0005.66,0004.05
2022-12-22 04:30:00,,0824.9,5.00,0.00,20.8,18.7,00.0,29.7,21.9,03.4,0000.1,0012.93,0005.65,0004.04
2022-12-22 04:31:00,,0825.1,5.01,0.00,20.7,19.1,00.0,29.6,21.9,03.4,0000.2,0012.80,0005.61,0004.02
2022-12-22 04:32:00,,0825.1,4.98,0.00,20.8,20.1,00.0,29.6,22.2,03.4,-000.2,0012.60,0005.58,0004.01
2022-12-22 04:33:00,,0825.1,5.00,0.00,20.9,20.9,00.0,29.5,22.4,03.4,-000.2,0012.49,0005.56,0003.99
2022-12-22 04:34:00,,0824.9,5.00,0.00,21.0,21.4,00.0,29.6,22.6,03.4,-000.0,0012.41,0005.53,0003.95
2022-12-22 04:35:00,,0824.8,4.99,0.00,21.1,21.7,00.0,29.6,22.8,03.4,0000.2,0012.67,0005.54,0003.93
2022-12-22 04:36:00,,0824.8,4.98,0.00,21.0,20.8,00.0,29.7,22.5,03.4,0000.1,0012.75,0005.54,0003.91
2022-12-22 04:37:00,,0825.1,5.05,0.00,20.9,19.6,00.0,29.7,22.2,03.4,0001.1,0012.32,0005.53,0003.90
2022-12-22 04:38:00,,0825.2,4.95,0.00,20.7,18.6,00.0,29.7,21.8,03.4,0001.7,0012.15,0005.55,0003.90
2022-12-22 04:39:00,,0824.7,5.04,0.00,20.7,19.1,00.0,29.6,21.9,03.4,0003.0,0012.21,0005.49,0003.91
2022-12-22 04:40:00,,0824.7,4.99,0.00,20.8,20.1,00.0,29.6,22.2,03.4,0002.5,0011.99,0005.44,0003.91
2022-12-22 04:41:00,,0825.1,4.99,0.00,20.9,20.9,00.0,29.5,22.5,03.4,0002.5,0011.90,0005.41,0003.91
2022-12-22 04:42:00,,0825.1,5.00,0.00,21.0,21.4,00.0,29.6,22.7,03.4,0003.0,0011.77,0005.40,0003.92
2022-12-22 04:43:00,,0824.7,5.00,0.00,21.1,21.9,00.0,29.6,22.9,03.4,0003.3,0011.50,0005.42,0003.92
2022-12-22 04:44:00,,0824.5,4.99,0.00,21.2,22.0,00.0,29.6,23.0,03.4,0003.1,0011.63,0005.42,0003.93
2022-12-22 04:45:00,,0824.7,4.98,0.00,21.2,21.1,00.0,29.7,22.7,03.3,0003.0,0012.05,0005.43,0003.94
2022-12-22 04:46:00,,0824.4,5.03,0.00,21.0,19.9,00.0,29.8,22.3,03.4,0002.8,0012.32,0005.45,0003.96
2022-12-22 04:47:00,,0824.5,5.00,0.00,20.8,19.1,00.0,29.8,22.0,03.4,0002.6,0012.30,0005.40,0003.99
2022-12-22 04:48:00,,0824.5,5.00,0.00,20.9,19.9,00.0,29.7,22.2,03.4,0001.9,0012.39,0005.41,0004.01
2022-12-22 04:49:00,,0824.4,4.99,0.00,21.0,20.7,00.0,29.7,22.5,03.4,0001.5,0012.33,0005.38,0004.03
2022-12-22 04:50:00,,0824.2,5.04,0.00,21.1,21.3,00.0,29.7,22.7,03.4,0001.2,0011.99,0005.40,0004.04
2022-12-22 04:51:00,,0824.4,4.96,0.00,21.2,21.6,00.0,29.7,22.9,03.3,0001.5,0012.10,0005.42,0004.05
2022-12-22 04:52:00,,0824.6,5.02,0.00,21.3,21.9,00.0,29.7,23.0,03.3,0001.1,0012.10,0005.38,0004.05
2022-12-22 04:53:00,,0824.6,5.00,0.00,21.3,21.7,00.0,29.8,23.0,03.3,0000.7,0012.02,0005.39,0004.08
2022-12-22 04:54:00,,0824.5,5.02,0.00,21.2,20.4,00.0,29.9,22.6,03.3,0000.6,0011.81,0005.35,0004.11
2022-12-22 04:55:00,,0824.6,4.96,0.00,21.0,19.2,00.0,29.9,22.2,03.3,0001.5,0011.65,0005.41,0004.15
2022-12-22 04:56:00,,0824.6,5.03,0.00,20.8,18.4,00.0,29.8,21.9,03.4,0001.4,0011.45,0005.45,0004.20
2022-12-22 04:57:00,,0824.6,4.96,0.00,20.8,19.4,00.0,29.8,22.1,03.4,0002.0,0011.21,0005.45,0004.22
2022-12-22 04:58:00,,0824.7,5.04,0.00,20.9,20.3,00.0,29.7,22.4,03.4,0001.9,0011.00,0005.46,0004.24
2022-12-22 04:59:00,,0824.8,4.98,0.00,21.0,21.0,00.0,29.7,22.6,03.4,0002.5,0011.12,0005.48,0004.26
